STARLINK-34557

Last updated on Sat Jul 19 2025 00:02:08 GMT+0000 (Coordinated Universal Time)

1 64726U 25144C 25199.56777578 -.00567994 00000+0 -45440-2 0 9999 2 64726 53.1582 192.2993 0000790 36.4095 323.6978 15.72035756 3810
UTC large
Height (km)
Speed (km/s)
/
Latitude / Longitude
Inclination (degrees)
Orbital Period (minutes)
Azimuth
Elevation
Range (km)
Doppler Factor

Next 0 passes for location: London (51.5072 / 0.1276)

Sorry there are no passes over London.